Regional Weather Roundup
Issued by NWS

Home | Current Version | Previous Version | Text Only | Print | Product List | Glossary Off
Versions: 1 2 3 4 5 6 7 8 9 10 11 12 13 14 15 16 17 18 19 20 21 22 23 24 25 26 27 28 29 30 31 32 33 34 35 36 37 38 39 40 41 42 43 44 45 46 47 48 49 50

000
ASUS43 KOAX 221710
RWRNE

WEATHER ROUNDUP FOR NEBRASKA
NATIONAL WEATHER SERVICE OMAHA NE
1200 PM CDT TUE JUL 22 2014

NOTES: SATELLITE DATA IS BEING USED TO AUGMENT CLOUD COVER ABOVE
       12000 FEET.
       "FAIR" INDICATES FEW OR NO CLOUDS BELOW 12,000 FEET WITH NO
       SIGNIFICANT WEATHER AND/OR OBSTRUCTIONS TO VISIBILITY.

  * THESE STATIONS DO NOT REPORT WEATHER SUCH AS RAIN...SNOW OR FOG.

NEZ001>004-019>022-054>056-221800-
NEBRASKA PANHANDLE

CITY           SKY/WX    TMP DP  RH WIND       PRES   REMARKS
SCOTTSBLUFF    SUNNY     84  59  42 E10       30.26R
ALLIANCE       SUNNY     88  51  28 SE13      30.26R
CHADRON        SUNNY     84  57  39 NE8       30.23R
KIMBALL        SUNNY     82  54  39 SE8       30.30S
SIDNEY         SUNNY     87  54  32 E8        30.28S
$$

NEZ057>060-069>072-079>082-221800-
SOUTHWEST NEBRASKA

CITY           SKY/WX    TMP DP  RH WIND       PRES   REMARKS
NORTH PLATTE   SUNNY     87  59  38 SE13      30.17S
IMPERIAL       SUNNY     86  59  39 N9        30.20F
LEXINGTON      SUNNY     87  62  42 NE13      30.16R
MCCOOK         SUNNY     89  63  41 NE12      30.15R HX  90
OGALLALA       SUNNY     82  58  42 E8        30.21F
$$

NEZ005>010-023>029-035>040-094-221800-
NORTH CENTRAL NEBRASKA

CITY           SKY/WX    TMP DP  RH WIND       PRES   REMARKS
VALENTINE      MOSUNNY   79  62  56 NE9       30.21R
AINSWORTH      MOSUNNY   77  63  61 N3        30.21R
BROKEN BOW     SUNNY     85  61  44 E10       30.17R
O`NEILL        MOSUNNY   80  60  50 N9        30.14S
THEDFORD       SUNNY     86  59  40 SE7       30.19S
$$

NEZ041-046>049-061>064-073>077-083>087-221800-
SOUTH CENTRAL NEBRASKA

CITY           SKY/WX    TMP DP  RH WIND       PRES   REMARKS
GRAND ISLAND   MOSUNNY   86  67  52 NE7       30.10R
AURORA         PTSUNNY   84  71  64 NE6       30.09R
HASTINGS       MOSUNNY   85  66  53 NE7       30.10R
HEBRON         MOSUNNY   90  67  46 SW3       30.03F HX  93
HOLDREGE       MOSUNNY   86  64  48 NE14      30.11R
KEARNEY *      SUNNY     88  63  42 E14       30.13R
YORK           MOSUNNY   84  73  70 NE7       30.08R HX  91
$$

NEZ011>018-030>034-042>045-221800-
NORTHEAST NEBRASKA

CITY           SKY/WX    TMP DP  RH WIND       PRES   REMARKS
NORFOLK        PTSUNNY   81  63  54 N8        30.10R
ALBION         MOSUNNY   81  62  52 N10       30.12F
BLAIR          MOSUNNY   87  62  43 N6        30.03R
COLUMBUS *     PTSUNNY   84  66  54 N15G21    30.09R
FREMONT        PTSUNNY   90  73  56 N9G20     30.06R HX  97
TEKAMAH        PTSUNNY   85  66  53 N16       30.05R
WAYNE          PTSUNNY   81  68  64 N16       30.11R
$$

NEZ050>053-065>068-078-088>093-221800-
SOUTHEAST NEBRASKA

CITY           SKY/WX    TMP DP  RH WIND       PRES   REMARKS
LINCOLN        MOSUNNY   92  73  53 E7        30.02R HX 100
OMAHA EPPLEY   PTSUNNY   92  73  53 VRB3      29.99R HX 100
BEATRICE       SUNNY     85  72  63 W3        30.02S HX  91
FALLS CITY     SUNNY     93  74  53 VRB6      30.00S HX 103
NEBRASKA CITY  SUNNY     88  72  58 CALM      30.00F HX  95
PLATTSMOUTH    MOSUNNY   89  73  58 E3        30.00S HX  97
$$

NEZ044-045-051>053-067-221800-
OMAHA AREA

CITY           SKY/WX    TMP DP  RH WIND       PRES   REMARKS
OMAHA EPPLEY   PTSUNNY   92  73  53 VRB3      29.99R HX 100
BLAIR          MOSUNNY   87  62  43 N6        30.03R
FREMONT        PTSUNNY   90  73  56 N9G20     30.06R HX  97
MILLARD        MOSUNNY   91  75  58 CALM      29.99R HX 101
OFFUTT AFB     PTSUNNY   91  78  64 E6        29.99R HX 105
PLATTSMOUTH    MOSUNNY   89  73  58 E3        30.00S HX  97
WAHOO          FAIR      88  72  58 N6        30.03R HX  94
$$



USA.gov is the U.S. government's official web portal to all federal, state and local government web resources and services.